Flag for U.S.A. Weather past 2 weeks in Charleston, South Carolina, U.S.A.

Now
75 °F

Passing clouds.


Feels Like: 74 °F
Forecast: 76 / 85 °F
Wind: 5 mph from North

Location: Charleston Air Force Base Reporting Station

Current Time: Aug 1, 2014 at 4:44:34 AM

Latest Report: Aug 1, 2014 at 3:56 AM


Visibility: 9 mi

Pressure: 29.98 "Hg

Humidity: 90%

Dew point: 72 °F

Location of CharlestonLocation

Historic Weather in Charleston — Graph

°F

Charleston temperature yesterday

Maximum temperature yesterday: 85 °F (at 9:56 AM)
Minimum temperature yesterday: 75 °F (at 11:56 PM)
Average temperature yesterday: 78 °F

Past Weeks' High & Low Weather Summary

 TemperatureHumidityPressure
High95 °F (Jul 28, 1:56 PM)94% (Jul 23, 5:56 AM)30.14 "Hg (Jul 23, 5:56 AM)
Low72 °F (Jul 19, 3:56 AM)39% (Jul 29, 2:56 PM)29.79 "Hg (Jul 28, 4:56 PM)
Average82 °F74%30.00 "Hg
* Reported Jul 17 3:56 AM — Aug 1 3:56 AM, Charleston, Weather by CustomWeather, © 2014

Note: Actual official high and low records may vary slightly from our data, if they occured in-between our weather recording intervals... More about our weather records

Advertising

Charleston weather history for previous 24 hours

 ConditionsComfort  
Time TempWeatherWind HumidityBarometerVisibility
3:56 AM
Aug 1
75 °FPartly cloudy.5 mph90%29.98 "Hg9 mi
2:56 AM75 °FPassing clouds.No wind90%29.99 "Hg9 mi
1:56 AM75 °FPassing clouds.5 mph90%30.01 "Hg9 mi
12:56 AM75 °FPassing clouds.5 mph90%30.03 "Hg10 mi
11:56 PM
Jul 31
75 °FPassing clouds.3 mph90%30.03 "Hg10 mi
10:56 PM76 °FLight rain. Partly cloudy.7 mph91%30.03 "Hg10 mi
9:56 PM77 °FPartly cloudy.8 mph88%30.03 "Hg10 mi
8:56 PM77 °FBroken clouds.7 mph88%30.03 "Hg10 mi
7:56 PM77 °FBroken clouds.5 mph88%30.02 "Hg10 mi
6:56 PM78 °FBroken clouds.8 mph87%30.03 "Hg10 mi
5:56 PM80 °FBroken clouds.6 mph79%30.02 "Hg10 mi
4:56 PM77 °FLight rain. Fog.No wind82%30.02 "Hg6 mi
3:56 PM76 °FThunderstorms. Fog.3 mph88%30.05 "Hg3 mi
2:56 PM76 °FStrong thunderstorms. Fog.10 mph91%30.04 "Hg3 mi
1:56 PM79 °FThunderstorms. Cloudy.7 mph88%30.04 "Hg8 mi
12:56 PM78 °FThunderstorms. Fog.6 mph87%30.06 "Hg5 mi
11:56 AM81 °FBroken clouds.10 mph77%30.04 "Hg10 mi
10:56 AM81 °FThunderstorms. Broken clouds.12 mph77%30.04 "Hg10 mi
9:56 AM85 °FBroken clouds.13 mph65%30.02 "Hg10 mi
8:56 AM83 °FPartly sunny.8 mph70%30.03 "Hg10 mi
7:56 AM79 °FPartly sunny.5 mph77%30.03 "Hg10 mi
6:56 AM77 °FPassing clouds.6 mph82%30.02 "Hg10 mi
5:56 AM77 °FPassing clouds.7 mph82%30.01 "Hg10 mi
4:56 AM76 °FMostly cloudy.6 mph85%30.00 "Hg10 mi
Weather by CustomWeather, © 2014

See weather overviewHow to use our weather pages